Location: Newark
(35.2161°N, 26.1013°E)
Time: 20:01:58
(UTC+00:00)

BEESAT 2 - Pass Details

Date: 30 January 2020
Orbit: 493 x 534 km, 64.9° (Epoch: 17 February)

Event Time Altitude Azimuth Distance (km) Brightness Sun altitude
Rises 18:16:39 0° 250° (WSW) 2,629 ? -31.9°
Reaches altitude 10° 18:19:35 10° 274° (W) 1,755 ? -32.4°
Enters shadow 18:21:26 15° 302° (WNW) 1,481 ? -32.8°
